User: anonymous   Login
Location: Newark
(28.4500°N, 16.2500°W)
Time: 08:35:27
(UTC+00:00)
Language:

CAS-4A - Orbit

View from above orbital plane
View from above orbital plane
View from above satellite
View from above satellite

Ground track
Ground track

The orbit data is extracted from the following two-line orbital elements,

1 42761U 17034D   19266.90027546  .00000075  00000-0  18078-4 0  9992
2 42761  43.0193  56.3409 0010748 148.9404 345.5287 15.09712883125522
Epoch (UTC): 23 September 2019 21:36:23
Eccentricity: 0.0010748
inclination: 43.0193°
perigee height: 529 km
apogee height: 544 km
right ascension of ascending node: 56.3409°
argument of perigee: 148.9404°
revolutions per day: 15.09712883
mean anomaly at epoch: 345.5287°
orbit number at epoch: 12552

The dashed part of the orbit path shows where the satellite is in the earth's shadow,  

DLR